Location: Radomski Observatory
(40.2854°N, 79.5145°W)
Time: 13:28:46
(UTC-05:00)

Daily predictions for brighter satellites

Satellite Brightness Start Highest point End
(mag) Time Altitude Azimuth Time Altitude Azimuth Time Altitude Azimuth
Meteor 1-21 Rocket 4.4 17:41:02 10° S 17:46:51 67° E 17:52:45 10° NNE
Meteor 2-10 4.1 17:43:28 10° N 17:48:24 52° ENE 17:53:23 10° SSE
Cosmos 2341 Rocket 4.0 17:43:16 10° N 17:49:32 73° E 17:55:50 10° SSE
Cosmos 1943 3.4 17:44:55 10° SSW 17:50:33 78° WNW 17:56:12 10° NNE
IRS-1A Rocket 4.4 17:46:41 10° SE 17:52:01 52° ENE 17:57:28 10° N
SKYMED 2 4.2 17:51:25 10° NNE 17:55:27 36° E 17:59:27 10° SSE
Tiangong 1 0.9 17:57:23 10° WNW 17:59:47 44° N 18:02:01 11° E
CZ-2C R/B 3.8 17:55:40 10° NNE 18:00:22 63° ESE 18:04:56 10° S
Meteor 2-16 Rocket 4.4 17:55:44 10° N 18:01:49 68° E 18:07:54 10° SSE
YAOGAN 1 2.6 17:58:22 10° SSE 18:02:36 58° ENE 18:06:52 10° N
Cosmos 1400 Rocket 2.8 17:59:25 10° S 18:03:27 83° E 18:07:34 10° N
Meteor 2-21 Rocket 4.5 17:58:34 10° N 18:04:42 87° E 18:10:45 10° S
Cosmos 44 3.6 18:03:03 10° S 18:07:02 38° ESE 18:11:07 10° NE
Cosmos 1674 4.4 18:04:12 10° SW 18:07:39 34° WNW 18:11:06 10° N
MOS 1 4.4 18:05:28 10° SE 18:10:54 51° ENE 18:16:20 10° N
OAO 3 Rocket 4.0 18:07:18 10° WSW 18:11:46 44° S 18:16:16 10° ESE
Cosmos 2181 Rocket 4.2 18:05:53 10° S 18:12:20 88° W 18:18:48 10° N
CZ-4 R/B 4.3 18:09:15 10° SSE 18:13:20 73° ENE 18:17:27 10° N
EO 1 Del DPAF 4.0 18:09:54 10° NNE 18:13:23 32° E 18:16:49 10° SSE
SMAP 4.1 18:10:19 10° S 18:14:49 50° W 18:19:22 10° NNW
ATLAS 2AS CENTAUR R/B 3.5 18:08:22 10° NW 18:16:07 63° WSW 18:23:13 10° SSE
Cosmos 968 Rocket 3.5 18:12:58 10° NNW 18:18:09 88° WSW 18:23:15 10° SSE
Cosmos 2221 3.1 18:15:53 10° NNW 18:20:13 61° W 18:24:31 10° S
Landsat 4 3.7 18:17:49 10° NNE 18:21:31 57° ESE 18:25:10 10° S
Cosmos 1626 2.6 18:19:10 10° SSE 18:22:37 38° E 18:26:06 10° NNE
MTI 3.7 18:21:47 10° NNE 18:24:59 66° ESE 18:28:09 10° S
Cosmos 2098 Rocket 4.3 18:20:45 10° NNE 18:25:39 37° E 18:31:35 10° SE
Cosmos 1703 4.1 18:23:44 10° SSE 18:27:09 28° E 18:29:54 14° NE
Cosmos 2058 3.9 18:26:30 10° SE 18:29:56 25° E 18:31:53 18° NE
Cosmos 2369 Rocket 3.8 18:25:11 10° NW 18:30:24 39° WSW 18:35:37 10° S
SL-8 Rocket 4.1 18:24:49 10° N 18:31:01 83° W 18:37:15 10° S
Cosmos 1656 Rocket 3.6 18:29:12 10° NNW 18:34:38 62° ENE 18:40:07 10° SE
Cosmos 1408 Rocket 3.4 18:31:21 10° S 18:35:36 67° E 18:39:53 10° NNE
Cosmos 1515 Rocket 4.4 18:32:07 10° NNE 18:35:50 27° ENE 18:39:31 10° SE
Cosmos 1300 3.3 18:32:15 10° NNW 18:36:02 60° W 18:39:48 10° S
Cosmos 2218 Rocket 4.0 18:29:52 10° N 18:36:03 90° NE 18:42:12 10° S
NOAA 12 4.0 18:31:25 10° SSE 18:36:37 73° ENE 18:41:51 10° N
Cosmos 44 Rocket 3.2 18:32:07 10° SSW 18:36:44 64° ESE 18:40:13 18° NE
NOSS 3-4 (A) 3.8 18:31:55 10° NNW 18:38:54 62° NE 18:46:23 10° SE
NOSS 3-4 (C) 3.8 18:32:02 10° NNW 18:39:00 62° NE 18:46:29 10° SE
ERS-2 2.2 18:37:42 10° SSE 18:41:17 52° ENE 18:44:53 10° N
Cosmos 1943 Rocket 3.3 18:36:21 10° NW 18:41:42 47° WSW 18:46:57 10° S
DMSP B5D1-3 4.4 18:37:53 10° NNE 18:42:59 69° ESE 18:48:02 10° S
SL-14 R/B 4.5 18:39:17 10° SSW 18:43:07 44° W 18:46:56 10° N
Cosmos 2151 3.6 18:39:32 10° SSE 18:43:23 34° E 18:45:08 24° NE
COSMO-SKYMED 1 3.0 18:39:14 10° N 18:43:33 63° WNW 18:47:49 10° SSW
Cosmos 1500 Rocket 4.2 18:44:19 10° SSE 18:48:19 34° E 18:49:28 29° ENE
CZ-4 R/B 3.8 18:45:52 10° SSW 18:49:29 27° W 18:53:08 10° NW
Cosmos 2228 Rocket 3.3 18:49:30 10° N 18:53:56 47° ENE 18:58:22 10° SSE
Lacrosse 5 4.0 18:53:31 10° SE 18:53:52 11° SE 18:53:52 11° SE
SL-24 R/B - RUBIN 2 3.4 18:51:13 10° NNW 18:55:45 89° WSW 19:00:02 10° SSE
Cosmos 332 Rocket 4.1 18:53:29 10° S 18:58:07 46° ESE 18:59:47 33° NE
ALOS 3.0 18:55:58 10° S 19:00:31 54° W 19:05:06 10° NNW
FENGYUN 3A 4.2 18:56:25 10° S 19:01:41 61° W 19:07:00 10° NNW
Cosmos 1743 Rocket 3.4 18:58:12 10° S 19:02:31 63° E 19:05:04 24° NNE
ASTRO E2 4.4 19:01:19 10° SW 19:04:23 21° S 19:05:23 19° SSE
Cosmos 1241 Rocket 4.5 18:59:05 10° NNW 19:05:13 57° NE 19:09:09 22° SE
Cosmos 1328 Rocket 3.5 19:04:19 10° N 19:08:43 87° W 19:13:03 10° S
Thor Agena Rocket 3.7 19:07:18 33° NE 19:09:15 48° E 19:14:16 10° S
Meteor 1-27 4.2 19:03:52 10° N 19:09:36 89° ENE 19:15:24 10° S
Meteor 1-11 4.4 19:05:52 10° SSW 19:11:27 74° W 19:17:07 10° N
Cosmos 1346 Rocket 3.0 19:08:06 10° NNW 19:12:00 68° W 19:15:50 10° S
Cosmos 909 Rocket 4.1 19:08:46 10° NNW 19:15:30 57° NE 19:18:03 35° ESE
Cosmos 1821 Rocket 3.9 19:13:16 10° N 19:19:22 60° E 19:25:30 10° SSE
H-2A R/B 3.1 19:16:33 10° S 19:20:18 65° W 19:24:09 10° NNW
COSMOS 2406 3.1 19:15:01 10° SSW 19:20:44 86° ESE 19:23:40 30° NNE
TIMED 4.3 19:18:49 10° NNW 19:23:13 81° ENE 19:23:37 71° SE
Meteor 2-15 Rocket 4.4 19:17:29 10° S 19:23:28 59° E 19:26:48 27° NNE
FengYun 1-2 T 4.4 19:21:31 10° S 19:27:09 77° WSW 19:32:48 10° NNW
Nadezhda 3 Rocket 4.1 19:23:42 10° S 19:30:01 79° W 19:36:25 10° N
Tiangong 1 4.1 19:31:43 10° WNW 19:32:00 12° W 19:32:00 12° W
Cosmos 1455 2.7 19:30:27 10° NNW 19:34:15 57° W 19:37:59 10° S
CZ-4C R/B 3.9 19:34:49 10° S 19:35:51 15° SSE 19:35:51 15° SSE
USA 81 4.3 19:35:12 10° SSW 19:40:25 66° W 19:45:41 10° N
Cosmos 371 Rocket 3.4 19:39:11 10° SSW 19:43:58 70° WNW 19:44:15 68° NW
Cosmos 1151 Rocket 3.8 19:42:22 10° NNW 19:46:39 52° W 19:50:53 10° S
Cosmos 2208 Rocket 4.1 19:46:36 10° SSW 19:51:09 68° SSW 19:51:09 68° SSW
Cosmos 1934 Rocket 3.9 19:52:46 10° N 19:59:10 89° E 20:05:33 10° S
GEOS 3 Rocket 3.8 19:59:26 70° SW 19:59:30 70° WSW 20:04:52 10° NW
Lacrosse 5 4.5 20:32:34 10° SW 20:33:07 13° SW 20:33:07 13° SW
